,,,PA_Meas_PMT16A,,PR_Meas_QMR101_102,,RH_Meas_QMH101,,SR_Meas_QMS101,,TA_Meas_QMH101,,GenWind,,GenWind,
date,time,status,PA,status,PR,status,RH,status,SR,status,TA,status,DirAvg,status,SpdAvg,
2012-06-24, 00:00:05,VALID,1005.44,VALID,0,VALID,77.662,VALID,0,VALID,27.367,VALID,265,VALID,0.351563,
2012-06-24, 00:01:05,VALID,1005.39,VALID,0,VALID,77.3492,VALID,0,VALID,27.3844,VALID,235,VALID,1.55156,
2012-06-24, 00:02:05,VALID,1005.4,VALID,0,VALID,77.1204,VALID,0,VALID,27.3649,VALID,235,VALID,1.92031,
2012-06-24, 00:03:05,VALID,1005.4,VALID,0,VALID,77.334,VALID,0,VALID,27.3649,VALID,235,VALID,0.788281,
2012-06-24, 00:04:05,VALID,1005.39,VALID,0,VALID,77.2958,VALID,0,VALID,27.367,VALID,207,VALID,0.733594,
2012-06-24, 00:05:05,VALID,1005.36,VALID,0,VALID,76.8762,VALID,0,VALID,27.3454,VALID,222,VALID,2.36094,
2012-06-24, 00:06:05,VALID,1005.38,VALID,0,VALID,77.0364,VALID,0,VALID,27.3649,VALID,214,VALID,1.21484,
2012-06-24, 00:07:05,VALID,1005.37,VALID,0,VALID,77.3263,VALID,0,VALID,27.3649,VALID,276,VALID,0.826953,
2012-06-24, 00:08:05,VALID,1005.33,VALID,0,VALID,76.9601,VALID,0,VALID,27.367,VALID,228,VALID,0.654297,
2012-06-24, 00:09:05,VALID,1005.34,VALID,0,VALID,77.1966,VALID,0,VALID,27.3454,VALID,238,VALID,1.59063,
2012-06-24, 00:10:05,VALID,1005.39,VALID,0,VALID,77.8527,VALID,0,VALID,27.3475,VALID,230,VALID,1.37773,
2012-06-24, 00:11:05,VALID,1005.36,VALID,0,VALID,77.7764,VALID,0,VALID,27.3064,VALID,227,VALID,0.772266,
2012-06-24, 00:12:05,VALID,1005.31,VALID,0,VALID,77.9977,VALID,0,VALID,27.3064,VALID,227,VALID,1.19609,
2012-06-24, 00:13:05,VALID,1005.33,VALID,0,VALID,77.9977,VALID,0,VALID,27.2869,VALID,227,VALID,1.42891,
2012-06-24, 00:14:05,VALID,1005.31,VALID,0,VALID,78.074,VALID,0,VALID,27.3259,VALID,252,VALID,1.29258,
2012-06-24, 00:15:05,VALID,1005.31,VALID,0,VALID,78.0206,VALID,0,VALID,27.3454,VALID,231,VALID,2.06836,
2012-06-24, 00:16:04,VALID,1005.27,VALID,0,VALID,78.3333,VALID,0.0815089,VALID,27.3649,VALID,278,VALID,0.700781,
2012-06-24, 00:17:04,VALID,1005.26,VALID,0,VALID,78.1731,VALID,0.0815089,VALID,27.3865,VALID,237,VALID,1.00859,
2012-06-24, 00:18:04,VALID,1005.23,VALID,0,VALID,77.99,VALID,0,VALID,27.3454,VALID,244,VALID,1.59609,
2012-06-24, 00:19:04,VALID,1005.25,VALID,0,VALID,77.9672,VALID,0,VALID,27.367,VALID,234,VALID,1.93008,
2012-06-24, 00:20:04,VALID,1005.24,VALID,0,VALID,78.2113,VALID,0,VALID,27.3454,VALID,173,VALID,0.823828,
2012-06-24, 00:21:04,VALID,1005.2,VALID,0,VALID,78.0206,VALID,0,VALID,27.3454,VALID,337,VALID,0.805859,
2012-06-24, 00:22:04,VALID,1005.19,VALID,0,VALID,77.9977,VALID,0,VALID,27.3433,VALID,252,VALID,2.16992,
2012-06-24, 00:23:04,VALID,1005.23,VALID,0,VALID,77.9748,VALID,0.0815089,VALID,27.3649,VALID,237,VALID,1.80898,
2012-06-24, 00:24:04,VALID,1005.22,VALID,0,VALID,78.1274,VALID,0,VALID,27.4059,VALID,241,VALID,1.52617,
2012-06-24, 00:25:04,VALID,1005.19,VALID,0,VALID,78.0129,VALID,0,VALID,27.3628,VALID,253,VALID,1.22578,
2012-06-24, 00:26:04,VALID,1005.19,VALID,0,VALID,78.1655,VALID,0,VALID,27.3844,VALID,318,VALID,0.962109,
2012-06-24, 00:27:04,VALID,1005.18,VALID,0,VALID,78.135,VALID,0,VALID,27.3844,VALID,247,VALID,0.929297,
2012-06-24, 00:28:04,VALID,1005.17,VALID,0,VALID,78.2418,VALID,0,VALID,27.3649,VALID,236,VALID,1.53203,
2012-06-24, 00:29:04,VALID,1005.15,VALID,0,VALID,78.135,VALID,0,VALID,27.3649,VALID,273,VALID,1.60195,
2012-06-24, 00:30:04,VALID,1005.17,VALID,0,VALID,78.135,VALID,0,VALID,27.3844,VALID,233,VALID,1.10273,
2012-06-24, 00:31:04,VALID,1005.18,VALID,0,VALID,78.1274,VALID,0,VALID,27.3865,VALID,212,VALID,0.769531,
2012-06-24, 00:32:04,VALID,1005.18,VALID,0,VALID,78.3639,VALID,0,VALID,27.3649,VALID,234,VALID,1.55742,
2012-06-24, 00:33:04,VALID,1005.17,VALID,0,VALID,78.5012,VALID,0,VALID,27.3454,VALID,274,VALID,1.28437,
2012-06-24, 00:34:04,VALID,1005.18,VALID,0,VALID,78.2952,VALID,0,VALID,27.3454,VALID,206,VALID,0.907812,
2012-06-24, 00:35:04,VALID,1005.13,VALID,0,VALID,78.3791,VALID,0,VALID,27.3454,VALID,263,VALID,1.83672,
2012-06-24, 00:36:04,VALID,1005.16,VALID,0,VALID,78.4859,VALID,0,VALID,27.3433,VALID,245,VALID,1.12812,
2012-06-24, 00:37:04,VALID,1005.15,VALID,0,VALID,78.4783,VALID,0,VALID,27.3649,VALID,231,VALID,1.09531,
2012-06-24, 00:38:04,VALID,1005.09,VALID,0,VALID,78.1808,VALID,0.0815089,VALID,27.3649,VALID,256,VALID,2.16133,
2012-06-24, 00:39:04,VALID,1005.13,VALID,0,VALID,78.1731,VALID,0,VALID,27.3649,VALID,284,VALID,1.30938,
2012-06-24, 00:40:04,VALID,1005.12,VALID,0,VALID,78.1426,VALID,0,VALID,27.3865,VALID,231,VALID,1.10039,
2012-06-24, 00:41:04,VALID,1005.1,VALID,0,VALID,78.3944,VALID,0,VALID,27.3649,VALID,263,VALID,1.06094,
2012-06-24, 00:42:04,VALID,1005.1,VALID,0,VALID,78.2647,VALID,0.0815089,VALID,27.3454,VALID,291,VALID,0.903125,
2012-06-24, 00:43:04,VALID,1005.04,VALID,0,VALID,78.1197,VALID,0,VALID,27.3259,VALID,302,VALID,1.64023,
2012-06-24, 00:44:04,VALID,1005.1,VALID,0,VALID,78.3181,VALID,0,VALID,27.2849,VALID,252,VALID,1.16172,
2012-06-24, 00:45:04,VALID,1005.09,VALID,0,VALID,78.3105,VALID,0,VALID,27.3259,VALID,284,VALID,1.28242,
2012-06-24, 00:46:04,VALID,1005.07,VALID,0,VALID,78.3715,VALID,0,VALID,27.3259,VALID,256,VALID,1.2918,
2012-06-24, 00:47:04,VALID,1005.04,VALID,0,VALID,78.3791,VALID,0,VALID,27.3475,VALID,265,VALID,0.910547,
2012-06-24, 00:48:04,VALID,1005.04,VALID,0,VALID,78.5698,VALID,0,VALID,27.3454,VALID,260,VALID,2.00508,
2012-06-24, 00:49:04,VALID,1005.03,VALID,0,VALID,78.402,VALID,0,VALID,27.3454,VALID,285,VALID,1.77656,
2012-06-24, 00:50:04,VALID,1005,VALID,0,VALID,78.3867,VALID,0,VALID,27.3259,VALID,236,VALID,1.65547,
2012-06-24, 00:51:04,VALID,1005.04,VALID,0,VALID,78.9894,VALID,0,VALID,27.2675,VALID,217,VALID,0.65,
2012-06-24, 00:52:04,VALID,1004.99,VALID,0,VALID,78.6004,VALID,0,VALID,27.248,VALID,212,VALID,2.22773,
2012-06-24, 00:53:04,VALID,1005.01,VALID,0,VALID,79.1039,VALID,0,VALID,27.209,VALID,284,VALID,1.37188,
2012-06-24, 00:54:04,VALID,1004.99,VALID,0,VALID,79.3175,VALID,0,VALID,27.1916,VALID,253,VALID,1.53516,
2012-06-24, 00:55:04,VALID,1005.01,VALID,0,VALID,79.6608,VALID,0,VALID,27.1506,VALID,234,VALID,1.2207,
2012-06-24, 00:56:04,VALID,1005.02,VALID,0,VALID,79.8668,VALID,0,VALID,27.0921,VALID,207,VALID,1.74023,
2012-06-24, 00:57:04,VALID,1005,VALID,0,VALID,79.9278,VALID,0,VALID,27.0511,VALID,237,VALID,1.95664,
2012-06-24, 00:58:04,VALID,1005,VALID,0,VALID,80.4542,VALID,0,VALID,27.0531,VALID,259,VALID,0.760547,
2012-06-24, 00:59:04,VALID,1005,VALID,0,VALID,81.0569,VALID,0,VALID,27.0121,VALID,259,VALID,0.932031,
2012-06-24, 01:00:04,VALID,1005.01,VALID,0,VALID,80.8814,VALID,0.0815089,VALID,27.0142,VALID,256,VALID,2.17969,
2012-06-24, 01:01:04,VALID,1005.04,VALID,0,VALID,81.2171,VALID,0.0815089,VALID,26.9947,VALID,252,VALID,1.3418,
2012-06-24, 01:02:04,VALID,1005.02,VALID,0,VALID,81.1408,VALID,0,VALID,26.9557,VALID,250,VALID,1.07109,
2012-06-24, 01:03:04,VALID,1004.97,VALID,0,VALID,81.423,VALID,0,VALID,26.9362,VALID,280,VALID,1.4293,
2012-06-24, 01:04:04,VALID,1005,VALID,0,VALID,81.8045,VALID,0,VALID,26.8973,VALID,266,VALID,1.49414,
2012-06-24, 01:05:04,VALID,1004.96,VALID,0,VALID,81.9952,VALID,0,VALID,26.8583,VALID,263,VALID,0.621094,
2012-06-24, 01:06:04,VALID,1004.99,VALID,0,VALID,82.5292,VALID,0,VALID,26.7978,VALID,242,VALID,1.10508,
2012-06-24, 01:07:04,VALID,1004.96,VALID,0,VALID,81.8121,VALID,0,VALID,26.8408,VALID,235,VALID,1.18047,
2012-06-24, 01:08:04,VALID,1004.99,VALID,0,VALID,80.767,VALID,0,VALID,26.8388,VALID,237,VALID,1.48008,
2012-06-24, 01:09:04,VALID,1005.05,VALID,0,VALID,80.9958,VALID,0,VALID,26.8388,VALID,247,VALID,1.35469,
2012-06-24, 01:10:04,VALID,1005.09,VALID,0,VALID,80.0956,VALID,0,VALID,26.8583,VALID,238,VALID,2.07188,
2012-06-24, 01:11:04,VALID,1005.19,VALID,0,VALID,80.1948,VALID,0,VALID,26.8973,VALID,177,VALID,2.85195,
2012-06-24, 01:12:04,VALID,1005.16,VALID,0,VALID,80.3397,VALID,0,VALID,26.7394,VALID,158,VALID,3.32188,
2012-06-24, 01:13:04,VALID,1005.23,VALID,0,VALID,81.0569,VALID,0,VALID,26.4492,VALID,190,VALID,3.80078,
2012-06-24, 01:14:04,VALID,1005.24,VALID,0,VALID,82.247,VALID,0,VALID,26.194,VALID,215,VALID,1.74414,
2012-06-24, 01:15:04,VALID,1005.23,VALID,0,VALID,82.9564,VALID,0,VALID,26.0401,VALID,167,VALID,2.57969,
2012-06-24, 01:16:04,VALID,1005.24,VALID,0,VALID,83.6964,VALID,0,VALID,25.9038,VALID,222,VALID,2.04297,
2012-06-24, 01:17:04,VALID,1005.3,VALID,0,VALID,80.7136,VALID,0,VALID,25.7674,VALID,209,VALID,3.00625,
2012-06-24, 01:18:04,VALID,1005.2,VALID,0,VALID,80.7517,VALID,0,VALID,25.6681,VALID,188,VALID,2.64063,
2012-06-24, 01:19:04,VALID,1005.25,VALID,0,VALID,80.0498,VALID,0,VALID,25.5707,VALID,177,VALID,3.85469,
2012-06-24, 01:20:04,VALID,1005.16,VALID,0,VALID,80.4694,VALID,0,VALID,25.4558,VALID,191,VALID,3.98945,
2012-06-24, 01:21:04,VALID,1005.16,VALID,0,VALID,80.683,VALID,0.0815089,VALID,25.2981,VALID,164,VALID,2.42461,
2012-06-24, 01:22:04,VALID,1005.01,VALID,0,VALID,81.7511,VALID,0.0815089,VALID,25.1832,VALID,134,VALID,0.916406,
2012-06-24, 01:23:04,VALID,1004.99,VALID,0,VALID,82.6055,VALID,0,VALID,25.0469,VALID,174,VALID,1.9582,
2012-06-24, 01:24:04,VALID,1004.92,VALID,0,VALID,84.5967,VALID,0,VALID,24.9495,VALID,203,VALID,1.73867,
2012-06-24, 01:25:04,VALID,1004.97,VALID,0,VALID,85.6952,VALID,0,VALID,24.9125,VALID,169,VALID,1.03203,
2012-06-24, 01:26:04,VALID,1004.93,VALID,0,VALID,87.2668,VALID,0,VALID,24.8735,VALID,250,VALID,1.0582,
2012-06-24, 01:27:04,VALID,1004.97,VALID,0,VALID,88.7239,VALID,0,VALID,24.893,VALID,272,VALID,1.41367,
2012-06-24, 01:28:04,VALID,1004.91,VALID,0,VALID,90.593,VALID,0,VALID,24.9709,VALID,216,VALID,1.39141,
2012-06-24, 01:29:04,VALID,1004.93,VALID,0,VALID,91.867,VALID,0,VALID,25.0293,VALID,188,VALID,2.98555,
2012-06-24, 01:30:04,VALID,1004.87,VALID,0,VALID,92.4163,VALID,0,VALID,25.1248,VALID,186,VALID,2.67031,
2012-06-24, 01:31:04,VALID,1004.91,VALID,0,VALID,92.3247,VALID,0,VALID,25.2046,VALID,191,VALID,3.80938,
2012-06-24, 01:32:04,VALID,1004.88,VALID,0,VALID,92.1035,VALID,0,VALID,25.1637,VALID,204,VALID,3.64531,
2012-06-24, 01:33:04,VALID,1005.01,VALID,0,VALID,91.6305,VALID,0,VALID,25.0469,VALID,158,VALID,2.625,
2012-06-24, 01:34:04,VALID,1004.85,VALID,0,VALID,90.6311,VALID,0,VALID,24.8522,VALID,173,VALID,2.14922,
2012-06-24, 01:35:04,VALID,1004.87,VALID,0,VALID,90.1352,VALID,0,VALID,24.6574,VALID,194,VALID,4.37109,
2012-06-24, 01:36:04,VALID,1004.88,VALID,0.5,VALID,89.7309,VALID,0,VALID,24.4841,VALID,194,VALID,5.77578,
2012-06-24, 01:37:04,VALID,1004.93,VALID,0.5,VALID,90.4327,VALID,0,VALID,24.2875,VALID,175,VALID,1.26211,
2012-06-24, 01:38:04,VALID,1004.98,VALID,0,VALID,89.5097,VALID,0,VALID,24.0345,VALID,172,VALID,3.5043,
2012-06-24, 01:39:04,VALID,1005.03,VALID,0.5,VALID,89.5859,VALID,0,VALID,23.8203,VALID,183,VALID,4.00586,
2012-06-24, 01:40:04,VALID,1005.03,VALID,0,VALID,90.1352,VALID,0,VALID,23.6239,VALID,165,VALID,3.26563,
2012-06-24, 01:41:04,VALID,1005.04,VALID,0,VALID,90.9668,VALID,0,VALID,23.546,VALID,177,VALID,3.04297,
2012-06-24, 01:42:04,VALID,1005.04,VALID,0.5,VALID,91.4779,VALID,0.0815089,VALID,23.5284,VALID,169,VALID,2.20703,
2012-06-24, 01:43:04,VALID,1005.09,VALID,0,VALID,91.9967,VALID,0,VALID,23.4487,VALID,169,VALID,2.32773,
2012-06-24, 01:44:04,VALID,1005.09,VALID,0,VALID,92.5536,VALID,0,VALID,23.4487,VALID,168,VALID,2.13477,
2012-06-24, 01:45:04,VALID,1005.13,VALID,0.5,VALID,92.874,VALID,0,VALID,23.4877,VALID,188,VALID,2.22148,
2012-06-24, 01:46:04,VALID,1005.06,VALID,0,VALID,93.1486,VALID,0.0815089,VALID,23.5284,VALID,176,VALID,1.5043,
2012-06-24, 01:47:04,VALID,1005.09,VALID,0,VALID,93.6979,VALID,0.0815089,VALID,23.6646,VALID,148,VALID,2.49609,
2012-06-24, 01:48:04,VALID,1005.06,VALID,0,VALID,93.8276,VALID,0,VALID,23.7619,VALID,195,VALID,1.7207,
2012-06-24, 01:49:04,VALID,1005.09,VALID,0,VALID,93.8276,VALID,0.0815089,VALID,23.7991,VALID,191,VALID,1.41289,
2012-06-24, 01:50:04,VALID,1005,VALID,0,VALID,93.5453,VALID,0.0815089,VALID,23.8185,VALID,183,VALID,2.18828,
2012-06-24, 01:51:04,VALID,1005.03,VALID,0,VALID,93.1105,VALID,0,VALID,23.7601,VALID,180,VALID,2.19414,
2012-06-24, 01:52:04,VALID,1005.01,VALID,0.5,VALID,92.729,VALID,0,VALID,23.7407,VALID,145,VALID,2.27813,
2012-06-24, 01:53:04,VALID,1005,VALID,0,VALID,92.3171,VALID,0,VALID,23.723,VALID,190,VALID,2.29531,
2012-06-24, 01:54:04,VALID,1004.98,VALID,0,VALID,92.1187,VALID,0,VALID,23.7035,VALID,185,VALID,1.85625,
2012-06-24, 01:55:04,VALID,1005.01,VALID,0,VALID,92.2942,VALID,0,VALID,23.6841,VALID,167,VALID,0.941406,
2012-06-24, 01:56:04,VALID,1004.99,VALID,0,VALID,92.4163,VALID,0,VALID,23.6646,VALID,149,VALID,0.404297,
2012-06-24, 01:57:04,VALID,1004.95,VALID,0,VALID,92.5841,VALID,0,VALID,23.6452,VALID,152,VALID,0.239844,
2012-06-24, 01:58:04,VALID,1004.88,VALID,0,VALID,92.7214,VALID,0,VALID,23.6452,VALID,173,VALID,1.60742,
2012-06-24, 01:59:04,VALID,1004.86,VALID,0,VALID,92.7138,VALID,0,VALID,23.6239,VALID,219,VALID,0.627344,
2012-06-24, 02:00:04,VALID,1004.8,VALID,0,VALID,92.4086,VALID,0,VALID,23.6452,VALID,186,VALID,2.11445,
2012-06-24, 02:01:04,VALID,1004.76,VALID,0.5,VALID,91.989,VALID,0,VALID,23.6452,VALID,195,VALID,1.74805,
2012-06-24, 02:02:04,VALID,1004.73,VALID,0,VALID,91.9128,VALID,0.0815089,VALID,23.6646,VALID,179,VALID,1.81445,
2012-06-24, 02:03:04,VALID,1004.7,VALID,0,VALID,91.9585,VALID,0,VALID,23.7035,VALID,187,VALID,0.997656,
2012-06-24, 02:04:04,VALID,1004.66,VALID,0,VALID,91.9585,VALID,0,VALID,23.7017,VALID,198,VALID,1.11484,
2012-06-24, 02:05:04,VALID,1004.64,VALID,0,VALID,92.073,VALID,0,VALID,23.723,VALID,180,VALID,0.895312,
2012-06-24, 02:06:04,VALID,1004.57,VALID,0,VALID,92.1111,VALID,0,VALID,23.6823,VALID,197,VALID,0.498828,
2012-06-24, 02:07:04,VALID,1004.58,VALID,0,VALID,91.7449,VALID,0,VALID,23.6434,VALID,163,VALID,1.23477,
2012-06-24, 02:08:04,VALID,1004.56,VALID,0,VALID,91.6686,VALID,0,VALID,23.7035,VALID,170,VALID,1.18359,
2012-06-24, 02:09:04,VALID,1004.57,VALID,0,VALID,91.5008,VALID,0,VALID,23.7425,VALID,190,VALID,1.06172,
2012-06-24, 02:10:04,VALID,1004.6,VALID,0,VALID,91.455,VALID,0.0815089,VALID,23.7212,VALID,220,VALID,0.410156,
2012-06-24, 02:11:04,VALID,1004.6,VALID,0,VALID,91.4626,VALID,0,VALID,23.7407,VALID,131,VALID,0.418359,
2012-06-24, 02:12:04,VALID,1004.61,VALID,0,VALID,91.6839,VALID,0,VALID,23.7601,VALID,129,VALID,0.870703,
2012-06-24, 02:13:04,VALID,1004.62,VALID,0.5,VALID,91.6534,VALID,0,VALID,23.8203,VALID,155,VALID,0.573438,
2012-06-24, 02:14:04,VALID,1004.65,VALID,0,VALID,91.6991,VALID,0,VALID,23.7796,VALID,176,VALID,0.498437,
2012-06-24, 02:15:04,VALID,1004.66,VALID,0,VALID,91.867,VALID,0,VALID,23.8203,VALID,165,VALID,0.494922,
2012-06-24, 02:16:04,VALID,1004.63,VALID,0,VALID,92.0043,VALID,0,VALID,23.7991,VALID,124,VALID,0.338672,
2012-06-24, 02:17:04,VALID,1004.67,VALID,0,VALID,92.073,VALID,0,VALID,23.8009,VALID,63,VALID,0.486328,
2012-06-24, 02:18:04,VALID,1004.68,VALID,0,VALID,92.2179,VALID,0,VALID,23.7619,VALID,64,VALID,0.307422,
2012-06-24, 02:19:04,VALID,1004.69,VALID,0,VALID,92.3323,VALID,0,VALID,23.7619,VALID,64,VALID,0.357812,
2012-06-24, 02:20:04,VALID,1004.7,VALID,0,VALID,92.5078,VALID,0,VALID,23.7425,VALID,63,VALID,0.497656,
2012-06-24, 02:21:04,VALID,1004.7,VALID,0,VALID,92.6909,VALID,0.0815089,VALID,23.7212,VALID,61,VALID,0.246484,
2012-06-24, 02:22:04,VALID,1004.69,VALID,0,VALID,92.8282,VALID,0,VALID,23.723,VALID,61,VALID,0.505078,
2012-06-24, 02:23:04,VALID,1004.7,VALID,0,VALID,92.8969,VALID,0,VALID,23.723,VALID,61,VALID,0.505859,
2012-06-24, 02:24:04,VALID,1004.72,VALID,0,VALID,93.0571,VALID,0,VALID,23.7212,VALID,61,VALID,0.2875,
2012-06-24, 02:25:04,VALID,1004.73,VALID,0,VALID,93.1639,VALID,0,VALID,23.7407,VALID,61,VALID,0.215625,
2012-06-24, 02:26:04,VALID,1004.72,VALID,0,VALID,93.2631,VALID,0.0815089,VALID,23.7796,VALID,61,VALID,0.487109,
2012-06-24, 02:27:04,VALID,1004.71,VALID,0,VALID,93.3012,VALID,0,VALID,23.8009,VALID,61,VALID,0.464453,
2012-06-24, 02:28:04,VALID,1004.71,VALID,0,VALID,93.4004,VALID,0,VALID,23.8009,VALID,61,VALID,0.348828,
2012-06-24, 02:29:04,VALID,1004.68,VALID,0.5,VALID,93.4996,VALID,0,VALID,23.8203,VALID,61,VALID,0,
2012-06-24, 02:30:04,VALID,1004.64,VALID,0,VALID,93.6445,VALID,0,VALID,23.8398,VALID,61,VALID,0.265625,
2012-06-24, 02:31:04,VALID,1004.67,VALID,0,VALID,93.7437,VALID,0,VALID,23.8982,VALID,353,VALID,0.373047,
2012-06-24, 02:32:04,VALID,1004.63,VALID,0,VALID,93.9039,VALID,0.0815089,VALID,23.9371,VALID,346,VALID,0.736328,
2012-06-24, 02:33:04,VALID,1004.58,VALID,0,VALID,94.1175,VALID,0.0815089,VALID,24.0539,VALID,287,VALID,1.16523,
2012-06-24, 02:34:04,VALID,1004.54,VALID,0,VALID,94.2548,VALID,0,VALID,24.1707,VALID,275,VALID,1.21953,
2012-06-24, 02:35:04,VALID,1004.51,VALID,0,VALID,94.2319,VALID,0,VALID,24.2875,VALID,262,VALID,0.413672,
2012-06-24, 02:36:04,VALID,1004.5,VALID,0,VALID,94.1251,VALID,0,VALID,24.3246,VALID,280,VALID,0.64375,
2012-06-24, 02:37:04,VALID,1004.49,VALID,0,VALID,93.9802,VALID,0,VALID,24.4025,VALID,284,VALID,1.05078,
2012-06-24, 02:38:04,VALID,1004.42,VALID,0,VALID,93.8505,VALID,0,VALID,24.4609,VALID,261,VALID,1.47227,
2012-06-24, 02:39:04,VALID,1004.4,VALID,0,VALID,93.6369,VALID,0,VALID,24.5017,VALID,301,VALID,1.10039,
2012-06-24, 02:40:04,VALID,1004.38,VALID,0,VALID,93.5148,VALID,0,VALID,24.5193,VALID,292,VALID,0.698828,
2012-06-24, 02:41:04,VALID,1004.39,VALID,0,VALID,93.408,VALID,0,VALID,24.5601,VALID,300,VALID,0.679297,
2012-06-24, 02:42:04,VALID,1004.39,VALID,0,VALID,93.3775,VALID,0,VALID,24.599,VALID,256,VALID,0.670703,
2012-06-24, 02:43:04,VALID,1004.37,VALID,0,VALID,93.3317,VALID,0,VALID,24.6185,VALID,304,VALID,0.254297,
2012-06-24, 02:44:04,VALID,1004.35,VALID,0,VALID,93.3546,VALID,0,VALID,24.6574,VALID,226,VALID,0.404297,
2012-06-24, 02:45:04,VALID,1004.39,VALID,0,VALID,93.3851,VALID,0,VALID,24.6769,VALID,244,VALID,0.891797,
2012-06-24, 02:46:04,VALID,1004.36,VALID,0,VALID,93.3317,VALID,0,VALID,24.6945,VALID,295,VALID,1.15859,
2012-06-24, 02:47:04,VALID,1004.38,VALID,0,VALID,93.2249,VALID,0,VALID,24.7335,VALID,240,VALID,1.10742,
2012-06-24, 02:48:04,VALID,1004.33,VALID,0,VALID,93.1029,VALID,0,VALID,24.8132,VALID,247,VALID,0.937109,
2012-06-24, 02:49:04,VALID,1004.34,VALID,0,VALID,92.9655,VALID,0,VALID,24.8113,VALID,221,VALID,0.445313,
2012-06-24, 02:50:04,VALID,1004.3,VALID,0,VALID,92.7977,VALID,0,VALID,24.8095,VALID,246,VALID,0.615625,
2012-06-24, 02:51:04,VALID,1004.3,VALID,0,VALID,92.4239,VALID,0,VALID,24.8716,VALID,247,VALID,1.83164,
2012-06-24, 02:52:04,VALID,1004.26,VALID,0,VALID,92.2561,VALID,0,VALID,24.8911,VALID,204,VALID,0.898438,
2012-06-24, 02:53:04,VALID,1004.26,VALID,0,VALID,92.1492,VALID,0,VALID,24.8911,VALID,251,VALID,0.965234,
2012-06-24, 02:54:04,VALID,1004.26,VALID,0,VALID,92.0196,VALID,0,VALID,24.93,VALID,256,VALID,0.624609,
2012-06-24, 02:55:04,VALID,1004.27,VALID,0,VALID,91.8975,VALID,0,VALID,24.93,VALID,241,VALID,0.333594,
2012-06-24, 02:56:04,VALID,1004.28,VALID,0,VALID,91.8365,VALID,0,VALID,24.9087,VALID,280,VALID,0.992188,
2012-06-24, 02:57:04,VALID,1004.29,VALID,0,VALID,91.7068,VALID,0,VALID,24.93,VALID,281,VALID,1.38125,
2012-06-24, 02:58:04,VALID,1004.32,VALID,0,VALID,91.2262,VALID,0,VALID,24.9282,VALID,191,VALID,1.03008,
2012-06-24, 02:59:04,VALID,1004.32,VALID,0,VALID,90.8523,VALID,0,VALID,24.969,VALID,259,VALID,0.970312,
2012-06-24, 03:00:04,VALID,1004.31,VALID,0,VALID,90.4175,VALID,0,VALID,24.9885,VALID,224,VALID,0.471875,
2012-06-24, 03:01:04,VALID,1004.29,VALID,0,VALID,90.3259,VALID,0,VALID,24.9671,VALID,240,VALID,0.582031,
2012-06-24, 03:02:04,VALID,1004.3,VALID,0,VALID,90.2649,VALID,0,VALID,25.0274,VALID,244,VALID,0.845312,
2012-06-24, 03:03:04,VALID,1004.27,VALID,0,VALID,90.242,VALID,0,VALID,25.0079,VALID,255,VALID,0.788672,
2012-06-24, 03:04:04,VALID,1004.28,VALID,0,VALID,90.1963,VALID,0,VALID,25.0274,VALID,165,VALID,0.603516,
2012-06-24, 03:05:04,VALID,1004.29,VALID,0.5,VALID,90.2344,VALID,0,VALID,25.0079,VALID,238,VALID,0.523828,
2012-06-24, 03:06:04,VALID,1004.27,VALID,0,VALID,89.914,VALID,0,VALID,25.0274,VALID,266,VALID,0.759375,
2012-06-24, 03:07:04,VALID,1004.32,VALID,0,VALID,89.6622,VALID,0,VALID,25.0663,VALID,210,VALID,1.05898,
2012-06-24, 03:08:04,VALID,1004.37,VALID,0,VALID,89.6393,VALID,0,VALID,25.0858,VALID,211,VALID,0.476953,
2012-06-24, 03:09:04,VALID,1004.37,VALID,0,VALID,89.3113,VALID,0,VALID,25.045,VALID,241,VALID,1.46836,
2012-06-24, 03:10:04,VALID,1004.41,VALID,0,VALID,89.3037,VALID,0,VALID,25.0839,VALID,201,VALID,0.39375,
2012-06-24, 03:11:04,VALID,1004.46,VALID,0,VALID,89.1511,VALID,0,VALID,25.1248,VALID,220,VALID,0.796094,
2012-06-24, 03:12:04,VALID,1004.45,VALID,0,VALID,89.1435,VALID,0,VALID,25.1248,VALID,174,VALID,0.259766,
2012-06-24, 03:13:04,VALID,1004.48,VALID,0,VALID,88.9222,VALID,0,VALID,25.1248,VALID,211,VALID,0.675391,
2012-06-24, 03:14:04,VALID,1004.48,VALID,0,VALID,88.5484,VALID,0,VALID,25.1423,VALID,231,VALID,0.591406,
2012-06-24, 03:15:04,VALID,1004.47,VALID,0,VALID,88.7086,VALID,0,VALID,25.1423,VALID,226,VALID,0.462109,
2012-06-24, 03:16:04,VALID,1004.5,VALID,0,VALID,88.7391,VALID,0,VALID,25.1442,VALID,227,VALID,0.622266,
2012-06-24, 03:17:04,VALID,1004.5,VALID,0,VALID,88.4187,VALID,0,VALID,25.1229,VALID,215,VALID,1.49531,
2012-06-24, 03:18:04,VALID,1004.49,VALID,0,VALID,88.3653,VALID,0,VALID,25.1637,VALID,203,VALID,1.18672,
2012-06-24, 03:19:04,VALID,1004.5,VALID,0,VALID,88.1899,VALID,0,VALID,25.2046,VALID,230,VALID,0.778125,
2012-06-24, 03:20:04,VALID,1004.53,VALID,0,VALID,88.2127,VALID,0,VALID,25.1832,VALID,224,VALID,0.807422,
2012-06-24, 03:21:04,VALID,1004.55,VALID,0,VALID,88.2433,VALID,0,VALID,25.2027,VALID,214,VALID,0.657422,
2012-06-24, 03:22:04,VALID,1004.54,VALID,0,VALID,88.2738,VALID,0,VALID,25.1813,VALID,200,VALID,0.33125,
2012-06-24, 03:23:04,VALID,1004.5,VALID,0,VALID,88.2204,VALID,0,VALID,25.2007,VALID,214,VALID,1.02578,
2012-06-24, 03:24:04,VALID,1004.54,VALID,0,VALID,88.1975,VALID,0,VALID,25.2221,VALID,221,VALID,1.0043,
2012-06-24, 03:25:04,VALID,1004.53,VALID,0,VALID,88.1899,VALID,0,VALID,25.2007,VALID,209,VALID,0.764844,
2012-06-24, 03:26:04,VALID,1004.49,VALID,0,VALID,88.3119,VALID,0,VALID,25.2027,VALID,240,VALID,0.905469,
2012-06-24, 03:27:04,VALID,1004.49,VALID,0,VALID,88.495,VALID,0,VALID,25.2027,VALID,222,VALID,0.553906,
2012-06-24, 03:28:04,VALID,1004.49,VALID,0,VALID,88.5637,VALID,0,VALID,25.1813,VALID,226,VALID,0.420312,
2012-06-24, 03:29:04,VALID,1004.51,VALID,0,VALID,88.5179,VALID,0,VALID,25.2027,VALID,252,VALID,0.435937,
2012-06-24, 03:30:04,VALID,1004.49,VALID,0,VALID,88.7468,VALID,0,VALID,25.1813,VALID,252,VALID,0.209375,
2012-06-24, 03:31:04,VALID,1004.5,VALID,0,VALID,88.9756,VALID,0,VALID,25.1832,VALID,262,VALID,0.538672,
2012-06-24, 03:32:04,VALID,1004.49,VALID,0,VALID,89.1816,VALID,0,VALID,25.1832,VALID,246,VALID,0.299609,
2012-06-24, 03:33:04,VALID,1004.49,VALID,0,VALID,89.029,VALID,0,VALID,25.1637,VALID,230,VALID,1.37812,
2012-06-24, 03:34:04,VALID,1004.47,VALID,0,VALID,89.0214,VALID,0,VALID,25.1618,VALID,224,VALID,0.494922,
2012-06-24, 03:35:04,VALID,1004.5,VALID,0,VALID,89.0595,VALID,0,VALID,25.224,VALID,254,VALID,0.507031,
2012-06-24, 03:36:04,VALID,1004.45,VALID,0,VALID,88.5179,VALID,0,VALID,25.1813,VALID,201,VALID,1.76797,
2012-06-24, 03:37:04,VALID,1004.49,VALID,0,VALID,88.4492,VALID,0,VALID,25.2806,VALID,198,VALID,0.371875,
2012-06-24, 03:38:04,VALID,1004.48,VALID,0,VALID,88.228,VALID,0,VALID,25.3,VALID,267,VALID,0.799219,
2012-06-24, 03:39:04,VALID,1004.45,VALID,0,VALID,88.1441,VALID,0.0815089,VALID,25.2981,VALID,248,VALID,0.732031,
2012-06-24, 03:40:04,VALID,1004.46,VALID,0,VALID,88.2509,VALID,0,VALID,25.2981,VALID,200,VALID,0.454297,
2012-06-24, 03:41:04,VALID,1004.45,VALID,0,VALID,88.2356,VALID,0,VALID,25.3176,VALID,318,VALID,0.289453,
2012-06-24, 03:42:04,VALID,1004.43,VALID,0,VALID,88.3272,VALID,0,VALID,25.339,VALID,246,VALID,0.453516,
2012-06-24, 03:43:04,VALID,1004.44,VALID,0,VALID,88.3195,VALID,0,VALID,25.3176,VALID,267,VALID,0.616016,
2012-06-24, 03:44:04,VALID,1004.45,VALID,0,VALID,88.4264,VALID,0,VALID,25.3195,VALID,266,VALID,0.119531,